Regional Weather Roundup
Issued by NWS

Home | Current Version | Previous Version | Text Only | Print | Product List | Glossary On
Versions: 1 2 3 4 5 6 7 8 9 10 11 12 13 14 15 16 17 18 19 20 21 22 23 24 25 26 27 28 29 30 31 32 33 34 35 36 37 38 39 40 41 42 43 44 45 46 47 48 49 50
000
ASUS45 KBOU 270107
RWRCO

WEATHER ROUNDUP FOR COLORADO
NATIONAL WEATHER SERVICE DENVER/BOULDER CO
700 PM MDT SUN MAR 26 2017

NOTE: "FAIR" INDICATES FEW OR NO CLOUDS BELOW 12000 FEET WITH NO
SIGNIFICANT WEATHER AND/OR OBSTRUCTIONS TO VISIBILITY.

COZ001>005-013-030-031-270200-
...NORTHWEST COLORADO...

CITY           SKY/WX    TMP DP  RH WIND       PRES   REMARKS
CRAIG          FAIR      47  21  35 W5        29.96S
HAYDEN         FAIR      46  25  42 CALM      29.97S
MEEKER         FAIR      50  21  32 SE3       29.96S
MOUNT WERNER   NOT AVBL
STEAMBOAT SPGS FAIR      43  29  56 CALM      29.98S
WALDEN         NOT AVBL
$$

COZ006>008-011-270200-
...WEST CENTRAL VALLEYS...

CITY           SKY/WX    TMP DP  RH WIND       PRES   REMARKS
GRAND JUNCTION FAIR      57  26  30 NW10      29.93R
MONTROSE       MOCLDY    53  35  50 SE10      29.99R
EAGLE          CLEAR     50  21  32 W13       29.98R
RIFLE          FAIR      55  24  30 W10       29.94R
DELTA          FAIR      60  26  26 SW6       29.94S
NUCLA          FAIR      54  27  35 CALM      30.00S
$$

COZ017>023-064>068-270200-
...SOUTHWEST COLORADO...

CITY           SKY/WX    TMP DP  RH WIND       PRES   REMARKS
DURANGO        FAIR      51  24  34 W16       29.97R
CORTEZ         FAIR      53  31  42 W6        29.99R
PAGOSA SPRINGS MOCLDY    47  34  61 N5        30.02R
TELLURIDE      FAIR      40  25  55 W5        30.08R
WOLF CREEK PAS SNOW      27  27 100 SW9       30.17R VSB<1/4 WCI  17
$$

COZ009-010-012-014-032>034-037-058>063-270200-
...CENTRAL COLORADO...

CITY           SKY/WX    TMP DP  RH WIND       PRES   REMARKS
ASPEN          CLOUDY    45  25  45 N6        29.99R
BUENA VISTA    FAIR      46  18  32 W21G28    29.95R
COPPER MTN     CLOUDY    30  21  69 W10       30.08R WCI  21
BERTHOUD PASS  CLOUDY    21  10  63 NW14G22   30.07R WCI   8
COTTONWOOD PAS FAIR      41  19  42 SW12      30.03R
GUNNISON       NOT AVBL
KREMMLING      CLOUDY    46  27  46 NW10      29.99R
LEADVILLE      FAIR      34  18  52 NW9       30.02R WCI  27
MONARCH PASS   MOCLDY    27  21  80 W18G26    30.20R WCI  13
SALIDA         FAIR      51  22  32 SE6       30.03R
SUNLIGHT       FAIR      28  21  74 SW7       30.11S WCI  21
WILKERSON PASS SNOW      28  27  93 E3        30.09R VSB<1/4
$$

COZ069>075-270200-
...SAN LUIS VALLEY/SANGRE DE CRISTO MOUNTAINS...

CITY           SKY/WX    TMP DP  RH WIND       PRES   REMARKS
ALAMOSA        CLOUDY    48  36  63 SE8       29.95R
LA VETA PASS   NOT AVBL
SAGUACHE       FAIR      46  19  34 N16       29.97R
$$

COZ035-036-038>040-270200-
...NORTHERN COLORADO FRONT RANGE...

CITY           SKY/WX    TMP DP  RH WIND       PRES   REMARKS
DENVER INTL AP MOCLDY    48  35  60 N7        29.96R
DMNS CITY PARK   N/A     48  36  63 N5        29.97R
AURORA         MOCLDY    47  35  61 N9        29.96R
FRONT RANGE AP MOCLDY    48  37  66 N6        29.96R
ERIE MUNI ARPT CLOUDY    48  40  75 NW5       29.96R
BOULDER MUN AP CLOUDY    46  39  76 CALM      29.96R
CENTENNIAL     MOCLDY    47  34  60 N8        29.96R
BROOMFIELD     MOCLDY    46  41  81 W7        29.97R
FORT COLLINS   FAIR      47  40  76 CALM      29.97R
LONGMONT       CLOUDY    48  43  83 NW3       29.99R
$$

COZ041-046-047-076>085-087-088-270200-
...PIKES PEAK/PALMER DIVIDE AND SOUTHERN FOOTHILLS...

CITY           SKY/WX    TMP DP  RH WIND       PRES   REMARKS
COLO. SPRINGS  LGT RAIN  45  36  70 SW15      29.98R
A. F. ACADEMY  FAIR      44  34  68 N8        29.97R
SCHRIEVER AFB  MOCLDY    46  33  62 NE8       29.98R
ELLICOTT         N/A    N/A N/A N/A NE7       29.96R
FALCON         MOCLDY    42  32  68 NE7       29.99R
FORT CARSON    RAIN      44  41  87 SW8       29.97R
LIMON          FAIR      45  36  70 N7        29.94R
MONUMENT HILL  CLOUDY    39  32  75 N7        30.00R
TRINIDAD       CLOUDY    47  39  74 E8        29.97R
$$

COZ042>045-048>051-090-091-270200-
...NORTHEAST COLORADO...

CITY           SKY/WX    TMP DP  RH WIND       PRES   REMARKS
GREELEY ARPT   CLOUDY    49  35  58 NE7       29.97R
AKRON          FAIR      49  35  58 NW8       29.92R
BURLINGTON     MOCLDY    47  40  76 E7        29.91R
WRAY           NOT AVBL
STERLING       FAIR      52  37  58 N13       29.90R
HOLYOKE        FAIR      54  37  54 NE7       29.90R
FORT MORGAN    FAIR      48  34  58 N8        29.95R
$$

COZ086-089-092>099-270200-
...SOUTHEAST COLORADO...

CITY           SKY/WX    TMP DP  RH WIND       PRES   REMARKS
PUEBLO         CLOUDY    53  37  54 NE3       29.94R
LA JUNTA       FAIR      50  38  63 NE7       29.94R
LAMAR          FAIR      45  39  79 NE6       29.92R
SPRINGFIELD      N/A     41  35  79 N16       29.93R
$$



USA.gov is the U.S. government's official web portal to all federal, state and local government web resources and services.